N810BE -KSAN

Flight info

Callsign N810BE
Flight time N/A
Altitude VFR
Route
Aircraft C25B/L-DOV/C

Departure

Time N/A
Airport -

Arrival

Time 2026-05-04 07:46
Airport San Diego International Airport (KSAN)
Time Latitude Longitude Altitude Speed Heading
2026-05-04 07:46 32.73370 -117.17963 27 ft 7 kts 128°
2026-05-04 07:46 32.73307 -117.17967 21 ft 12 kts 197°
2026-05-04 07:47 32.73225 -117.17948 18 ft 15 kts 112°
2026-05-04 07:47 32.73194 -117.17828 20 ft 16 kts 105°
2026-05-04 07:47 32.73163 -117.17695 20 ft 18 kts 106°
2026-05-04 07:49 32.75487 -117.21587 1770 ft 180 kts 13°
2026-05-04 07:49 32.76589 -117.20788 1747 ft 208 kts 55°
2026-05-04 07:49 32.76726 -117.19117 1876 ft 200 kts 105°
2026-05-04 07:50 32.76318 -117.17589 1816 ft 191 kts 109°
2026-05-04 07:50 32.75869 -117.16113 1607 ft 177 kts 112°
2026-05-04 07:50 32.75365 -117.15212 1321 ft 117 kts 157°
2026-05-04 07:50 32.74571 -117.15167 1020 ft 125 kts 192°
2026-05-04 07:51 32.73735 -117.15413 851 ft 118 kts 199°
2026-05-04 07:51 32.72976 -117.15745 580 ft 116 kts 219°
2026-05-04 07:51 32.72775 -117.16523 367 ft 91 kts 284°
2026-05-04 07:51 32.72949 -117.17267 161 ft 94 kts 284°
2026-05-04 07:52 32.73146 -117.18064 49 ft 104 kts 285°
2026-05-04 07:52 32.73287 -117.18677 19 ft 46 kts 285°
2026-05-04 07:52 32.73331 -117.18798 19 ft 12 kts 317°
2026-05-04 07:52 32.73406 -117.18802 17 ft 12 kts 41°
2026-05-04 07:53 32.73416 -117.18740 14 ft 13 kts 106°
2026-05-04 07:54 32.73175 -117.17745 20 ft 8 kts 106°
2026-05-04 07:55 32.73112 -117.17669 19 ft 18 kts 190°
2026-05-04 07:55 32.73062 -117.17755 17 ft 21 kts 286°
2026-05-04 07:55 32.73241 -117.18464 158 ft 149 kts 287°
2026-05-04 07:55 32.73619 -117.19960 484 ft 197 kts 288°
2026-05-04 07:56 32.74112 -117.21449 899 ft 194 kts 305°
2026-05-04 07:56 32.75234 -117.22146 1602 ft 184 kts 352°
2026-05-04 07:56 32.76572 -117.21845 1711 ft 209 kts 17°
2026-05-04 07:56 32.77799 -117.20855 1690 ft 219 kts 51°
2026-05-04 07:57 32.78267 -117.19152 1689 ft 222 kts 91°
2026-05-04 07:57 32.77624 -117.17585 1747 ft 242 kts 149°
2026-05-04 07:57 32.76245 -117.16313 1733 ft 242 kts 131°
2026-05-04 07:57 32.75517 -117.14630 1856 ft 220 kts 111°
2026-05-04 07:58 32.75613 -117.13154 2049 ft 172 kts
2026-05-04 07:58 32.75585 -117.14122 1864 ft 216 kts 214°
2026-05-04 07:58 32.74606 -117.14745 1334 ft 116 kts 217°
2026-05-04 07:58 32.73880 -117.15249 1055 ft 108 kts 212°
2026-05-04 07:59 32.73103 -117.15782 797 ft 148 kts 214°
2026-05-04 07:59 32.72188 -117.16126 771 ft 157 kts 146°
2026-05-04 07:59 32.72635 -117.15520 762 ft 145 kts 298°
2026-05-04 07:59 32.72770 -117.16408 360 ft 106 kts 281°
2026-05-04 08:00 32.72954 -117.17306 147 ft 112 kts 288°
2026-05-04 08:00 32.73168 -117.18167 284 ft 106 kts 287°
2026-05-04 08:00 32.73399 -117.19184 1145 ft 158 kts 283°
2026-05-04 08:02 32.74017 -117.21218 2219 ft 162 kts 302°
2026-05-04 08:02 32.74216 -117.20217 993 ft 266 kts 123°
2026-05-04 08:02 32.73693 -117.18579 681 ft 130 kts 108°
2026-05-04 08:03 32.73189 -117.18518 23 ft 22 kts 119°
2026-05-04 08:03 32.73107 -117.18592 24 ft 11 kts 131°
2026-05-04 08:03 32.73115 -117.18555 22 ft 0 kts 132°
2026-05-04 08:03 32.73157 -117.18544 22 ft 9 kts
2026-05-04 08:04 32.73117 -117.18401 21 ft 65 kts 109°
2026-05-04 08:04 32.72981 -117.17846 17 ft 60 kts 107°
2026-05-04 08:04 32.73023 -117.17654 21 ft 17 kts 313°
2026-05-04 08:04 32.73162 -117.18164 28 ft 101 kts 287°
2026-05-04 08:05 32.73397 -117.19394 93 ft 214 kts 281°
2026-05-04 08:05 32.73840 -117.21291 1388 ft 231 kts 315°
2026-05-04 08:05 32.75206 -117.21455 3498 ft 180 kts 38°
2026-05-04 08:05 32.74715 -117.20004 692 ft 303 kts 114°
2026-05-04 08:06 32.74245 -117.18243 475 ft 128 kts 127°
2026-05-04 08:06 32.73479 -117.18111 114 ft 126 kts 223°
2026-05-04 08:06 32.73376 -117.18879 22 ft 85 kts 280°
2026-05-04 08:06 32.73509 -117.19570 36 ft 78 kts 283°
2026-05-04 08:08 32.73327 -117.19270 18 ft 27 kts 104°
2026-05-04 08:08 32.73282 -117.19078 22 ft 22 kts 106°
2026-05-04 08:10 32.75223 -117.20139 880 ft 206 kts 105°
2026-05-04 08:11 32.74797 -117.18396 778 ft 232 kts 108°
2026-05-04 08:11 32.74098 -117.14561 993 ft 242 kts 90°
2026-05-04 08:11 32.74119 -117.12634 1540 ft 228 kts 87°
2026-05-04 08:12 32.74083 -117.10766 1604 ft 229 kts 125°
2026-05-04 08:12 32.72796 -117.11008 1701 ft 216 kts 239°
2026-05-04 08:12 32.72519 -117.12761 1241 ft 216 kts 264°
2026-05-04 08:12 32.72457 -117.14078 891 ft 108 kts 272°
2026-05-04 08:13 32.72504 -117.14954 586 ft 105 kts 277°
2026-05-04 08:13 32.72628 -117.15798 460 ft 100 kts 284°
2026-05-04 08:13 32.72789 -117.16601 286 ft 99 kts 287°
2026-05-04 08:13 32.72971 -117.17400 147 ft 102 kts 284°
2026-05-04 08:14 32.73170 -117.18214 43 ft 95 kts 287°
2026-05-04 08:14 32.73374 -117.19045 322 ft 126 kts 286°
2026-05-04 08:14 32.73933 -117.20005 852 ft 164 kts 354°
2026-05-04 08:16 32.73359 -117.18846 18 ft 15 kts 59°
2026-05-04 08:16 32.73413 -117.18731 19 ft 20 kts 101°
2026-05-04 08:16 32.73375 -117.18570 26 ft 21 kts 105°
2026-05-04 08:17 32.73317 -117.18331 24 ft 30 kts 105°
2026-05-04 08:17 32.73262 -117.18102 24 ft 28 kts 105°
2026-05-04 08:17 32.73304 -117.17968 25 ft 18 kts 15°
2026-05-04 08:17 32.73374 -117.17980 27 ft 0 kts 288°